Regional Weather Roundup
Issued by NWS New Orleans/Baton Rouge, LA

Home | Current Version | Previous Version | Text Only | Print | Product List | Glossary On
Versions: 1 2 3 4 5 6 7 8 9 10 11 12 13 14 15 16 17 18 19 20 21 22 23 24 25 26 27 28 29 30 31 32 33 34 35 36 37 38 39 40 41 42 43 44 45 46 47 48 49 50
000
ASUS44 KLIX 250014
RWRLIX
NEW ORLEANS REGIONAL WEATHER ROUNDUP
NATIONAL WEATHER SERVICE NEW ORLEANS LA
700 PM CDT MON JUL 24 2017

NOTE: "FAIR" INDICATES FEW OR NO CLOUDS BELOW 12,000 FEET WITH NO
      SIGNIFICANT WEATHER AND/OR OBSTRUCTIONS TO VISIBILITY.
      SKY/WX - SKY CONDITION AND SIGNIFICANT WEATHER.
      TMP - AIR TEMPERATURE.     DP    - DEWPOINT TEMPERATURE.
      RH  - RELATIVE HUMIDITY.   PRES  - PRESSURE.
      HI  - HEAT INDEX.          WCI   - WIND CHILL INDEX.

*  THESE STATIONS ARE NOT NWS OR FAA STATIONS AND ARE NOT UNDER
   NWS QUALITY CONTROL.

LAZ038-040-048-061>063-065>067-069-250100-
SOUTHEAST LOUISIANA

CITY           SKY/WX    TMP DP  RH WIND       PRES   REMARKS
N.O. INTL ARPT CLOUDY    81  75  82 SW5       29.99F
6HR MIN TEMP:  71; 6HR MAX TEMP:  91; 6HR PCP:  1.03;

N.O. LAKEFRONT CLOUDY    82  75  79 SW7       29.99F
6HR MIN TEMP:  77; 6HR MAX TEMP:  91; 6HR PCP:  0.22;

N.O. DOWNTOWN*   N/A     82  74  76 VRB6        N/A
6HR MIN TEMP:  74; 6HR MAX TEMP:  92; 6HR PCP:  0.39;

RESERVE*         N/A     83  74  76 CALM      29.99S
6HR MIN TEMP:  75; 6HR MAX TEMP:  92;

SLIDELL        CLOUDY    81  75  82 SW3       29.98S
6HR MIN TEMP:  76; 6HR MAX TEMP:  88; 6HR PCP:  0.06;

BATON ROUGE    CLOUDY    84  74  71 SW7       29.98F
6HR MIN TEMP:  76; 6HR MAX TEMP:  86; 6HR PCP: TRACE;

BOOTHVILLE     NOT AVBL
BELLE CHASSE   NOT AVBL
BOGALUSA*      CLOUDY    81  74  78 NW3       30.01R
6HR MIN TEMP:  76; 6HR MAX TEMP:  82; 6HR PCP:  0.19;

GALLIANO*      CLOUDY    85  71  62 CALM      30.00S
6HR MIN TEMP:  84; 6HR MAX TEMP:  90;

NEW ROADS*       N/A     83  75  76 CALM      29.99S
6HR MIN TEMP:  76; 6HR MAX TEMP:  84; 6HR PCP:  0.02;

GONZALES*        N/A     83  76  80 CALM      29.98S
6HR MIN TEMP:  75; 6HR MAX TEMP:  84; 6HR PCP:  0.18;

HAMMOND*       CLOUDY    81  73  78 W5        29.98S
HOUMA*         PTSUNNY   82  73  74 CALM      30.00F
PORT FOURCHON* CLEAR     86  73  66 CALM      30.01S

$$

MSZ070-080>082-250100-
SOUTHERN MISSISSIPPI

CITY           SKY/WX    TMP DP  RH WIND       PRES   REMARKS
MCCOMB         PTSUNNY   79  74  84 CALM      29.99R
6HR MIN TEMP:  75; 6HR MAX TEMP:  79; 6HR PCP: TRACE;

GULFPORT       CLOUDY    79  75  87 CALM      29.98R
6HR MIN TEMP:  74; 6HR MAX TEMP:  79; 6HR PCP:  0.37;

BILOXI         CLOUDY    79  74  84 CALM      29.99R
6HR MIN TEMP:  75; 6HR MAX TEMP:  79; 6HR PCP:  0.22;

PASCAGOULA     PTCLDY    79  73  82 CALM      29.99S
6HR MIN TEMP:  75; 6HR MAX TEMP:  81; 6HR PCP:  0.06;

STENNIS ARPT*  MOSUNNY   79  75  89 VRB3      29.99R

$$

COASTAL OBSERVATIONS
LAKE AND NEARSHORE STATIONS

STATION/POSITION TIME  TEMP    WIND        PRES    WAVE
                       AIR SEA DIR/SP/G            HT/PER
                 (UTC) (F)     (DEG/KT/KT) (MB)    (FT/S)
PASCAGOULA       2348   80     280/  3/  4 1015.1
WAVELAND YACHT   2348          250/  2/  2 1015.3
GRAND ISLE       2348   85 86   CALM  /  1 1016.5
SOUTHWEST PASS   2348   85     340/  7/  9   N/A
NEW CANAL        2348   82 85  230/  5/  7 1015.4
SHELL BEACH      2348          210/  8/  8 1015.9

OFFSHORE STATIONS

STATION/POSITION TIME  TEMP    WIND        PRES    WAVE
                       AIR SEA DIR/SP/G            HT/PER
                 (UTC) (F)     (DEG/KT/KT) (MB)    (FT/S)
64 S DAUPHIN ISL 2350   80 86   40/  4/  6 1016.4    2/ 4

$$




USA.gov is the U.S. government's official web portal to all federal, state and local government web resources and services.